EW9826 Weather Reports


time (UTC)temp
F
wind
direction
speed
knots
gust
knots
rain 1hr
in
rain 24hr
in
rain mn
in
humidity
%
barometer
mb
20260904030058 70 240 7.8 13.9 0.00 0.05 0.00 87 1012.0
20260904024558 70 225 6.1 13.0 0.00 0.05 0.00 87 1012.2
20260904024059 70 256 5.2 11.3 0.00 0.05 0.00 87 1012.2
20260904023559 70 228 8.7 13.9 0.00 0.05 0.00 87 1012.2
20260904023058 70 230 6.1 15.6 0.00 0.05 0.00 87 1012.2
20260904022558 70 243 7.8 20.0 0.00 0.05 0.00 86 1012.6
20260904022059 70 254 8.7 17.4 0.00 0.05 0.00 87 1012.5
20260904021558 70 243 7.0 17.4 0.00 0.05 0.00 86 1012.5
20260904020059 70 263 5.2 13.0 0.00 0.05 0.00 87 1012.8
20260904014558 70 229 4.3 11.3 0.00 0.05 0.00 87 1013.0
20260904014059 70 240 6.1 13.9 0.00 0.05 0.00 87 1013.0
20260904013558 70 230 6.1 13.9 0.00 0.05 0.00 87 1013.2
20260904013058 70 231 7.0 13.0 0.00 0.05 0.00 87 1013.2
20260903232058 70 239 4.3 7.8 0.00 0.05 0.00 87 1014.3
20260903231558 70 248 3.5 8.7 0.00 0.05 0.00 87 1014.3
20260903230057 70 228 6.1 13.0 0.00 0.05 0.00 87 1014.8
20260903225558 70 233 4.3 11.3 0.00 0.05 0.00 87 1014.8
20260903225058 70 233 4.3 10.4 0.00 0.05 0.00 87 1014.8
20260903224557 70 250 5.2 13.0 0.00 0.05 0.00 87 1014.8
20260903224059 70 238 6.1 13.9 0.00 0.05 0.00 87 1014.8
20260903223558 70 241 4.3 11.3 0.00 0.05 0.00 87 1014.8
20260903223059 70 236 4.3 12.2 0.00 0.05 0.00 87 1014.8
20260903220058 70 247 5.2 13.0 0.00 0.05 0.00 87 1015.3
20260903215557 70 240 6.1 19.1 0.00 0.05 0.05 87 1015.3
20260903214557 70 236 6.1 13.0 0.00 0.05 0.05 87 1015.3
20260903214058 70 232 7.0 12.2 0.00 0.05 0.05 87 1015.3
20260903212058 70 244 4.3 13.0 0.00 0.05 0.05 87 1015.4
20260903211557 70 252 5.2 12.2 0.00 0.05 0.05 87 1015.4
20260903211058 70 238 5.2 17.4 0.00 0.05 0.05 87 1015.6
20260903204058 70 246 4.3 13.0 0.00 0.05 0.05 88 1016.0
20260903203557 70 233 4.3 10.4 0.00 0.05 0.05 88 1016.0
20260903203058 70 251 6.1 13.0 0.00 0.05 0.05 88 1016.1
20260903202557 70 241 6.1 10.4 0.00 0.05 0.05 88 1015.9
20260903201558 70 223 6.1 12.2 0.00 0.05 0.05 88 1016.2
20260903201058 70 233 5.2 11.3 0.00 0.05 0.05 87 1016.0
20260903193058 70 260 6.1 12.2 0.00 0.05 0.05 87 1016.2
20260903192557 70 228 5.2 11.3 0.00 0.05 0.05 87 1016.1
20260903192058 70 227 5.2 11.3 0.00 0.05 0.05 88 1016.0
20260903183058 70 258 4.3 11.3 0.00 0.05 0.05 87 1016.2
20260903182557 70 236 6.1 11.3 0.00 0.05 0.05 87 1016.3
20260903181058 71 240 4.3 14.8 0.00 0.05 0.05 86 1016.2
20260903174557 71 245 6.1 10.4 0.00 0.05 0.05 84 1016.3
20260903173557 71 244 4.3 10.4 0.00 0.05 0.05 83 1016.3
20260903173059 72 225 5.2 10.4 0.00 0.05 0.05 83 1016.5
20260903172557 72 246 3.5 8.7 0.00 0.05 0.05 82 1016.6
20260903172058 72 261 4.3 10.4 0.00 0.05 0.05 81 1016.5
20260903171557 72 339 2.6 7.0 0.00 0.05 0.05 81 1016.4
20260903171058 72 237 2.6 10.4 0.00 0.05 0.05 81 1016.4
20260903162557 72 248 6.1 17.4 0.00 0.05 0.05 80 1016.3
20260903162058 72 243 5.2 13.0 0.00 0.05 0.05 79 1016.6
20260903155557 73 242 6.1 10.4 0.00 0.05 0.05 79 1016.4
20260903155058 72 257 7.0 12.2 0.00 0.05 0.05 79 1016.4
20260903154557 72 240 7.0 11.3 0.00 0.05 0.05 79 1016.4
20260903154058 72 249 5.2 12.2 0.00 0.05 0.05 79 1016.4
20260903153557 73 247 5.2 14.8 0.00 0.05 0.05 78 1016.5
20260903152557 73 262 6.1 12.2 0.00 0.05 0.05 76 1016.6
20260903152058 73 299 6.1 14.8 0.00 0.05 0.05 75 1016.7
20260903151557 73 249 7.8 12.2 0.00 0.05 0.05 76 1016.8
20260903151057 73 254 6.1 17.4 0.00 0.05 0.05 76 1016.8
20260903145058 73 256 4.3 13.0 0.00 0.05 0.05 74 1016.6
20260903144557 73 271 5.2 13.0 0.00 0.05 0.05 75 1016.8
20260903144057 74 284 6.1 13.0 0.00 0.05 0.05 74 1016.7
20260903143558 74 267 6.1 17.4 0.00 0.05 0.05 74 1016.7
20260903142057 73 235 7.8 13.9 0.00 0.05 0.05 74 1016.5
20260903141557 73 283 7.0 15.6 0.00 0.05 0.05 74 1016.5
20260903141058 73 264 7.8 14.8 0.00 0.05 0.05 74 1016.6
20260903134557 73 247 8.7 14.8 0.00 0.05 0.05 72 1016.5
20260903134058 73 291 7.8 13.0 0.00 0.05 0.05 74 1016.5
20260903133557 73 261 6.1 14.8 0.00 0.05 0.05 73 1016.6
20260903130057 73 270 6.1 17.4 0.00 0.05 0.05 74 1016.3
20260903124556 73 265 7.0 19.1 0.00 0.05 0.05 75 1016.4
20260903124058 73 260 8.7 17.4 0.00 0.05 0.05 75 1016.4
20260903123557 72 263 10.4 18.2 0.00 0.05 0.05 76 1016.4
20260903123057 72 263 8.7 20.0 0.00 0.05 0.05 75 1016.4
20260903120057 73 268 7.0 19.1 0.00 0.05 0.05 76 1016.3
20260903115557 73 262 5.2 13.9 0.00 0.05 0.05 77 1016.3
20260903115057 73 271 9.6 17.4 0.00 0.05 0.05 76 1016.2
20260903114557 72 278 7.0 13.9 0.00 0.05 0.05 78 1016.3
20260903113057 72 263 7.8 17.4 0.00 0.05 0.05 78 1016.2
20260903112557 72 246 8.7 17.4 0.00 0.05 0.05 78 1016.2
20260903112057 72 263 6.1 14.8 0.00 0.05 0.05 79 1016.1
20260903111556 72 252 8.7 14.8 0.00 0.05 0.05 79 1016.1
20260903111058 71 267 7.8 14.8 0.00 0.05 0.05 80 1016.2
20260903110056 71 248 5.2 10.4 0.00 0.05 0.05 82 1016.0
20260903105556 71 257 7.8 14.8 0.00 0.05 0.05 81 1016.0
20260903105057 71 276 11.3 20.9 0.00 0.05 0.05 80 1016.0
20260903104557 71 249 9.6 18.2 0.00 0.05 0.05 79 1016.2
20260903104057 72 243 3.5 11.3 0.00 0.05 0.05 80 1016.1
20260903103557 71 237 8.7 21.7 0.00 0.05 0.05 79 1016.2
20260903103057 71 251 6.1 14.8 0.00 0.05 0.05 80 1016.2
20260903102556 71 249 5.2 17.4 0.00 0.05 0.05 80 1016.0
20260903102058 71 267 7.8 15.6 0.00 0.05 0.05 80 1016.1
20260903101557 71 271 8.7 15.6 0.00 0.07 0.05 79 1016.1
20260903101057 71 274 11.3 21.7 0.00 0.09 0.05 78 1016.0
20260903095057 71 248 8.7 18.2 0.00 0.09 0.05 82 1016.0
20260903093556 71 274 6.1 10.4 0.00 0.09 0.05 83 1015.8
20260903092556 70 263 6.1 10.4 0.00 0.09 0.05 83 1015.7
20260903092057 70 247 6.1 17.4 0.00 0.09 0.05 83 1015.7
20260903075057 68 258 4.3 11.3 0.00 0.09 0.05 92 1015.1
20260903074556 68 235 5.2 13.0 0.00 0.09 0.05 92 1015.2
20260903074057 68 237 5.2 12.2 0.00 0.09 0.05 93 1015.2
20260903072556 67 264 5.2 11.3 0.01 0.09 0.05 93 1015.3
20260903072057 67 275 3.5 7.8 0.02 0.09 0.05 94 1015.3
20260903063556 66 246 4.3 8.7 0.03 0.09 0.04 95 1015.3
20260903062556 66 254 5.2 10.4 0.03 0.09 0.04 95 1015.2
20260903062057 66 251 3.5 7.8 0.03 0.08 0.03 94 1015.2
20260903055057 66 248 6.1 10.4 0.02 0.06 0.02 94 1014.9
20260903054556 66 252 4.3 10.4 0.02 0.06 0.02 94 1014.8
20260903052556 66 240 4.3 10.4 0.01 0.06 0.01 93 1014.9
20260903052057 66 253 5.2 12.2 0.00 0.05 0.00 93 1015.0
20260903051556 66 247 4.3 11.3 0.00 0.05 0.00 94 1015.0
20260903051056 66 239 2.6 11.3 0.00 0.05 0.00 94 1015.0
20260903050056 66 236 4.3 10.4 0.00 0.05 0.00 94 1014.8
20260903045556 66 252 4.3 10.4 0.00 0.05 0.00 94 1014.8
20260903035056 65 248 4.3 12.2 0.00 0.05 0.00 93 1014.9
20260903033556 65 196 4.3 10.4 0.00 0.05 0.00 93 1015.3
20260903033056 65 243 4.3 8.7 0.00 0.05 0.00 92 1015.3